Location: B?lite?ti
(46.2833°N, 22.7333°E)
Time: 04:37:28
(UTC+00:00)

Cosmos 1655 Rocket - Pass Details

Date: 24 January 2021
Orbit: 971 x 1006 km, 83.0° (Epoch: 26 February)

Event Time Altitude Azimuth Distance (km) Brightness Sun altitude
Rises 17:52:01 0° 177° (S) 3,664 7.0 -25.7°
Reaches altitude 10° 17:54:32 10° 174° (S) 2,717 6.3 -26.2°
Enters shadow 17:59:07 49° 152° (SSE) 1,235 4.3 -26.9°
Exits shadow 18:08:40 - 12° (NNE) 3,409 6.7 -28.6°
Sets 18:09:22 0° 11° (NNE) 3,677 6.9 -28.7°
